Simultaneous Nadir Overpasses (SNOs) Predictions

Prediction of SNOs near equator between AQUA and NPP Satellite Orbit:

Table of predicted SNOs near equator for the next 14.0 days since TLE Epoch: 8/4/2017
Index Date (AQUA) Time (AQUA) AQUA Lat,Lon Date (NPP) Time (NPP) NPP Lat,Lon Distance(km) Time Diff (sec)
1 08/07/2017 00:08:37 -4.64, 21.01 08/06/2017 23:59:03 -4.60, 20.86 17.42 574
2 08/07/2017 00:56:52 0.07,-170.40 08/07/2017 00:48:34 -0.01,-170.82 47.48 498
3 08/07/2017 01:44:59 4.49, -1.77 08/07/2017 01:37:56 4.63, -2.45 76.91 423
4 08/09/2017 15:42:42 29.95, -36.59 08/09/2017 15:32:42 30.60, -37.04 83.50 600
5 08/09/2017 16:24:37 -2.94, 137.25 08/09/2017 16:15:31 -2.92, 137.00 28.06 546
6 08/09/2017 17:12:53 -1.56, -54.17 08/09/2017 17:05:02 -1.69, -54.68 57.99 471
7 08/09/2017 18:01:00 6.12, 114.46 08/09/2017 17:54:24 6.31, 113.69 87.13 396
8 08/12/2017 07:52:31 5.83, 84.86 08/12/2017 07:42:37 5.81, 84.78 8.71 594
9 08/12/2017 08:40:39 -1.31,-106.53 08/12/2017 08:32:00 -1.24,-106.87 38.44 519
10 08/12/2017 09:28:54 -3.24, 62.06 08/12/2017 09:21:31 -3.36, 61.46 68.39 443
11 08/12/2017 10:17:01 7.81,-129.30 08/12/2017 10:10:53 7.99,-130.17 97.17 368
12 08/15/2017 00:08:32 4.15,-158.91 08/14/2017 23:59:06 4.13,-159.08 19.39 566
13 08/15/2017 00:56:40 0.37, 9.71 08/15/2017 00:48:29 0.44, 9.27 49.07 491
14 08/15/2017 01:44:55 -4.92, 178.30 08/15/2017 01:37:59 -5.10, 177.61 78.74 416
15 08/17/2017 15:42:39 -29.96, 143.42 08/17/2017 15:32:39 -30.18, 143.07 41.64 600
16 08/17/2017 16:24:34 2.53, -42.68 08/17/2017 16:15:35 2.46, -42.94 29.97 539
17 08/17/2017 17:12:42 1.99, 125.93 08/17/2017 17:04:58 2.12, 125.41 59.60 464
18 08/17/2017 18:00:56 -6.60, -65.46 08/17/2017 17:54:28 -6.77, -66.25 88.96 388




NCC Satellite Simultaneous Nadir Overpasses (SNOs) Prediction Service
